Hourly Data Report for October 31, 2014

All times are specified in Local Standard Time (LST). Add 1 hour to adjust for Daylight Saving Time where and when it is observed.

QIKIQTARJUAQ A
NUNAVUT

67°32'48.000" N
64°01'54.000" W
5.50 m
2400577
YVM

Download Data

Hourly Data (October 2014)
Hourly Data Report for October 31, 2014
Temp Definition
°C
Dew Point Temp Definition
°C
Rel Hum Definition
%
Wind Dir Definition
10's deg

Wind Spd Definition
km/h
Visibility Definition
km
Stn Press Definition
kPa
Hmdx Definition


Wind Chill Definition


Weather Definition


TIME
00:00 Legend Double Dagger -2.6 -4.0 90 19 4 8.1 101.14   -4 Snow
01:00 Legend Double Dagger -3.0 -4.1 92 20 5 12.9 101.15   -5 Snow
02:00 Legend Double Dagger -2.8 -3.8 93 19 8 14.5 101.18   -6 Snow
03:00 Legend Double Dagger -2.8 -3.6 94 20 8 4.8 101.22   -6 Snow
04:00 Legend Double Dagger -3.1 -3.8 95 14 4 8.1 101.24   -5 Snow
05:00 Legend Double Dagger -3.3 -4.0 95   0 6.4 101.27     Snow
06:00 Legend Double Dagger -2.8 -3.6 94 14 4 8.1 101.29   -4 Snow
07:00 Legend Double Dagger -2.6 -3.4 94   0 6.4 101.33     Snow
08:00 Legend Double Dagger -2.4 -3.0 96   0 3.2 101.34     Snow
09:00 Legend Double Dagger -2.5 -3.1 96   0 4.8 101.35     Snow
10:00 Legend Double Dagger -2.5 -3.1 96   0 2.4 101.35     Snow
11:00 Legend Double Dagger -2.2 -2.8 96 7 4 3.2 101.36   -4 Snow
12:00 Legend Double Dagger -2.5 -2.9 97   0 4.8 101.37     Snow
13:00 Legend Double Dagger -2.0 -2.6 96   0 4.8 101.39     Snow
14:00 Legend Double Dagger -2.2 -2.6 97   0 4.0 101.40     Snow
15:00 Legend Double Dagger -2.0 -2.6 96 10 4 3.6 101.44   -3 Snow
16:00 Legend Double Dagger -1.9 -2.5 96   0 8.1 101.47     Snow
17:00 Legend Double Dagger -2.0 -2.4 97   0 16.1 101.49     LegendNANA
18:00 Legend Double Dagger -1.9 -2.5 96 6 4 16.1 101.50   -3 LegendNANA
19:00 Legend Double Dagger -1.8 -2.2 97 6 4 16.1 101.54   -3 Snow
20:00 Legend Double Dagger -1.6 -2.0 97 LegendMM 4 6.4 101.57   -3 Snow
21:00 Legend Double Dagger -1.5 -2.1 96 LegendMM 4 16.1 101.59   -3 LegendNANA
22:00 Legend Double Dagger -1.1 -2.1 93 8 9 16.1 101.59   -4 LegendNANA
23:00 Legend Double Dagger -0.8 -1.8 93 1 8 16.1 101.61   -4 LegendNANA

Notes on Data Quality.

Legend

  • E = Estimated
  • M = Missing
  • NA = Not Available
  • ‡ = Partner data that is not subject to review by the National Climate Archives
Date modified: